Rogers City, MI

8:17 AM EDT on October 21, 2017 (GMT -0400)
Presque Isle County

Weather History for KPZQ - October, 2012

Change the Weather History Date:

Tuesday, October 9, 2012

  Actual Average (KAPN) Record (KAPN)
Temperature  
Mean Temperature 52 °F -  
Max Temperature 60 °F 56 °F 83 °F (1949)
Min Temperature 45 °F 38 °F 21 °F (1937)
Degree Days  
Heating Degree Days 12    
Growing Degree Days 2 (Base 50)    
Moisture  
Dew Point 33 °F    
Average Humidity 50    
Maximum Humidity 85    
Minimum Humidity 37    
Precipitation  
Precipitation 0.00 in - - ()
Sea Level Pressure  
Sea Level Pressure 29.82 in    
Wind  
Wind Speed 14 mph (SSW)    
Max Wind Speed 21 mph    
Max Gust Speed 36 mph    
Visibility 10 miles    
Events Rain    
Averages and records for this station are not official NWS values.
T = Trace of Precipitation, MM = Missing Value Source: NWS Daily Summary

Daily Weather History Graph

Daily Weather History Graph

Search for Another Location

Airport or City:

Trip Planner

Search our weather history database for the weather conditions in past years. The results will help you decide how hot, cold, wet, or windy it might be!

Date:

Astronomy

Oct. 09, 2012 Rise Set
Actual Time 7:44 AM EDT 6:59 PM EDT
Civil Twilight 7:14 AM EDT 7:29 PM EDT
Nautical Twilight 6:40 AM EDT 8:03 PM EDT
Astronomical Twilight 6:05 AM EDT 8:37 PM EDT
Moon 1:02 AM EDT (10/9) 3:41 PM EDT (10/9)
Length of Visible Light 12h 14m
Length of Day
11h 15m
Last Quarter, 37% of the Moon is Illuminated
Oct 9
Last Quarter
Oct 15
New
Oct 21
First Quarter
Oct 29
Full
Nov 6
Last Quarter

Hourly Weather History & Observations

Time (EDT) Temp. Windchill Dew Point Humidity Pressure Visibility Wind Dir Wind Speed Gust Speed Precip Events Conditions
12:34 AM 49.3 °F - 23.9 °F 37% 29.97 in 10.0 mi South 13.8 mph 20.7 mph N/A   Overcast
12:55 AM 49.1 °F - 24.1 °F 38% 29.97 in 10.0 mi South 13.8 mph 21.9 mph N/A   Overcast
1:15 AM 49.1 °F - 24.1 °F 38% 29.96 in 10.0 mi South 13.8 mph 23.0 mph N/A   Overcast
1:34 AM 48.9 °F - 24.3 °F 38% 29.95 in 10.0 mi South 16.1 mph 21.9 mph N/A   Overcast
1:55 AM 48.7 °F - 24.1 °F 38% 29.94 in 10.0 mi South 13.8 mph 20.7 mph N/A   Mostly Cloudy
2:14 AM 48.6 °F - 24.1 °F 38% 29.94 in 10.0 mi South 13.8 mph 21.9 mph N/A   Mostly Cloudy
2:34 AM 48.2 °F - 24.1 °F 39% 29.94 in 10.0 mi South 12.7 mph - N/A   Mostly Cloudy
2:55 AM 48.2 °F - 24.4 °F 39% 29.93 in 10.0 mi South 11.5 mph 20.7 mph N/A   Overcast
3:14 AM 47.8 °F - 24.8 °F 41% 29.92 in 10.0 mi South 16.1 mph 20.7 mph N/A   Overcast
3:34 AM 47.8 °F - 24.8 °F 41% 29.91 in 10.0 mi South 15.0 mph 25.3 mph N/A   Mostly Cloudy
3:55 AM 47.5 °F - 25.3 °F 42% 29.90 in 10.0 mi South 15.0 mph 19.6 mph N/A   Overcast
4:14 AM 47.3 °F - 25.7 °F 43% 29.90 in 10.0 mi South 15.0 mph 19.6 mph N/A   Overcast
4:35 AM 47.3 °F - 26.4 °F 44% 29.89 in 10.0 mi South 17.3 mph 21.9 mph N/A   Overcast
4:55 AM 46.9 °F - 27.1 °F 46% 29.88 in 10.0 mi South 15.0 mph 21.9 mph N/A   Overcast
5:14 AM 46.9 °F - 27.5 °F 47% 29.88 in 10.0 mi South 15.0 mph 25.3 mph N/A   Overcast
5:35 AM 46.9 °F - 28.0 °F 48% 29.87 in 10.0 mi South 16.1 mph 23.0 mph N/A   Overcast
5:55 AM 46.8 °F - 28.4 °F 49% 29.87 in 10.0 mi South 16.1 mph 23.0 mph N/A   Overcast
6:14 AM 46.8 °F - 28.6 °F 49% 29.87 in 10.0 mi South 17.3 mph 23.0 mph N/A   Overcast
6:35 AM 46.4 °F 39.8 °F 29.1 °F 51% 29.88 in 10.0 mi South 16.1 mph 25.3 mph N/A   Overcast
6:54 AM 46.4 °F 41.1 °F 29.3 °F 51% 29.88 in 10.0 mi South 11.5 mph 19.6 mph N/A   Overcast
7:14 AM 46.4 °F 40.1 °F 29.8 °F 53% 29.88 in 10.0 mi South 15.0 mph 19.6 mph N/A   Overcast
7:35 AM 46.4 °F 39.5 °F 30.2 °F 53% 29.87 in 10.0 mi South 17.3 mph - N/A   Mostly Cloudy
7:54 AM 46.4 °F 40.4 °F 30.6 °F 54% 29.87 in 10.0 mi South 13.8 mph 19.6 mph N/A   Scattered Clouds
8:14 AM 46.6 °F - 30.9 °F 54% 29.87 in 10.0 mi South 12.7 mph 18.4 mph N/A   Mostly Cloudy
8:35 AM 46.8 °F - 31.1 °F 55% 29.87 in 10.0 mi South 12.7 mph 18.4 mph N/A   Overcast
8:54 AM 46.9 °F - 31.8 °F 56% 29.87 in 10.0 mi South 11.5 mph 18.4 mph N/A   Overcast
9:15 AM 47.7 °F - 32.0 °F 55% 29.87 in 10.0 mi South 12.7 mph 19.6 mph N/A   Overcast
9:35 AM 48.2 °F - 32.4 °F 54% 29.87 in 10.0 mi South 12.7 mph 20.7 mph N/A   Overcast
9:54 AM 48.4 °F - 32.7 °F 55% 29.87 in 10.0 mi South 15.0 mph 20.7 mph N/A Rain Light Rain
10:15 AM 48.4 °F - 33.8 °F 57% 29.86 in 10.0 mi South 13.8 mph 18.4 mph N/A Rain Light Rain
10:34 AM 49.1 °F - 33.8 °F 56% 29.86 in 10.0 mi South 12.7 mph 21.9 mph N/A   Overcast
10:55 AM 49.3 °F - 34.0 °F 56% 29.86 in 10.0 mi South 13.8 mph - N/A   Light Drizzle
11:15 AM 49.3 °F - 34.9 °F 58% 29.86 in 10.0 mi South 11.5 mph 18.4 mph N/A   Light Drizzle
11:34 AM 50.0 °F - 35.2 °F 57% 29.86 in 10.0 mi South 10.4 mph - N/A   Overcast
11:55 AM 50.4 °F - 36.1 °F 58% 29.87 in 10.0 mi South 6.9 mph - N/A   Overcast
12:14 PM 51.4 °F - 36.7 °F 57% 29.86 in 10.0 mi South 8.1 mph - N/A   Overcast
12:34 PM 53.1 °F - 37.6 °F 56% 29.86 in 10.0 mi South 9.2 mph - N/A   Mostly Cloudy
12:55 PM 53.1 °F - 37.0 °F 55% 29.85 in 10.0 mi SSW 11.5 mph 18.4 mph N/A   Mostly Cloudy
1:14 PM 53.6 °F - 37.6 °F 55% 29.85 in 10.0 mi SSW 15.0 mph 20.7 mph N/A   Overcast
1:35 PM 54.1 °F - 37.6 °F 54% 29.83 in 10.0 mi South 15.0 mph 18.4 mph N/A   Overcast
1:55 PM 54.5 °F - 37.2 °F 52% 29.82 in 10.0 mi SSW 13.8 mph 24.2 mph N/A   Overcast
2:14 PM 54.9 °F - 37.4 °F 52% 29.81 in 10.0 mi SSW 10.4 mph 25.3 mph N/A   Overcast
2:35 PM 55.8 °F - 36.7 °F 49% 29.81 in 10.0 mi South 13.8 mph 18.4 mph N/A   Mostly Cloudy
2:55 PM 58.1 °F - 36.0 °F 44% 29.79 in 10.0 mi SSW 15.0 mph 19.6 mph N/A   Mostly Cloudy
3:14 PM 57.4 °F - 34.2 °F 42% 29.78 in 10.0 mi SSW 16.1 mph 20.7 mph N/A   Mostly Cloudy
3:35 PM 58.1 °F - 34.2 °F 41% 29.78 in 10.0 mi South 10.4 mph 19.6 mph N/A   Overcast
3:54 PM 58.3 °F - 34.0 °F 40% 29.77 in 10.0 mi South 9.2 mph - N/A   Overcast
4:14 PM 59.0 °F - 34.0 °F 39% 29.74 in 10.0 mi SSE 9.2 mph 16.1 mph N/A   Mostly Cloudy
4:35 PM 60.1 °F - 34.7 °F 39% 29.74 in 10.0 mi SSW 11.5 mph 17.3 mph N/A   Scattered Clouds
4:54 PM 59.9 °F - 34.2 °F 38% 29.72 in 10.0 mi South 15.0 mph 24.2 mph N/A   Scattered Clouds
5:15 PM 60.6 °F - 34.2 °F 37% 29.71 in 10.0 mi South 18.4 mph 24.2 mph N/A   Clear
5:35 PM 60.3 °F - 34.0 °F 37% 29.69 in 10.0 mi South 17.3 mph 23.0 mph N/A   Scattered Clouds
5:54 PM 60.1 °F - 34.0 °F 38% 29.68 in 10.0 mi South 15.0 mph 21.9 mph N/A   Scattered Clouds
6:15 PM 59.9 °F - 34.0 °F 38% 29.68 in 10.0 mi South 13.8 mph 24.2 mph N/A   Clear
6:34 PM 59.9 °F - 34.3 °F 38% 29.68 in 10.0 mi South 13.8 mph 19.6 mph N/A   Scattered Clouds
6:54 PM 59.9 °F - 34.7 °F 39% 29.68 in 10.0 mi South 11.5 mph 18.4 mph N/A   Overcast
7:14 PM 58.3 °F - 37.6 °F 46% 29.69 in 10.0 mi SSW 9.2 mph 16.1 mph N/A Rain Light Rain
7:34 PM 59.2 °F - 36.5 °F 43% 29.69 in 10.0 mi SW 11.5 mph 16.1 mph N/A   Overcast
7:55 PM 59.7 °F - 35.8 °F 41% 29.69 in 10.0 mi SW 13.8 mph 24.2 mph N/A   Overcast
8:14 PM 60.4 °F - 34.3 °F 38% 29.69 in 10.0 mi SSW 20.7 mph 35.7 mph N/A   Overcast
8:35 PM 60.3 °F - 34.2 °F 38% 29.68 in 10.0 mi SW 17.3 mph 34.5 mph N/A   Overcast
8:55 PM 60.1 °F - 34.2 °F 38% 29.68 in 10.0 mi SSW 16.1 mph 29.9 mph N/A   Overcast
9:14 PM 59.7 °F - 34.7 °F 39% 29.69 in 10.0 mi SW 13.8 mph 24.2 mph N/A   Overcast
9:35 PM 51.8 °F - 44.6 °F 76% 29.71 in 10.0 mi West 11.5 mph 23.0 mph N/A Rain Rain
9:55 PM 50.9 °F - 43.9 °F 77% 29.72 in 10.0 mi West 9.2 mph 16.1 mph N/A   Overcast
10:14 PM 50.0 °F - 44.1 °F 80% 29.72 in 10.0 mi WSW 11.5 mph 16.1 mph N/A Rain Light Rain
10:35 PM 49.1 °F - 43.7 °F 82% 29.72 in 7.0 mi West 10.4 mph 20.7 mph N/A Rain Rain
10:54 PM 47.3 °F - 42.1 °F 82% 29.73 in 7.0 mi West 10.4 mph 20.7 mph N/A   Drizzle
11:14 PM 46.4 °F 40.7 °F 41.5 °F 83% 29.73 in 7.0 mi West 12.7 mph 18.4 mph N/A   Drizzle
11:35 PM 45.9 °F 40.0 °F 41.2 °F 84% 29.74 in 7.0 mi West 12.7 mph 16.1 mph N/A Rain Rain
11:54 PM 45.1 °F 39.5 °F 41.0 °F 85% 29.74 in 5.0 mi West 11.5 mph 17.3 mph N/A   Drizzle